{"data":{"norad_id":63215,"epoch":"2026-05-24T23:48:47.351808Z","epoch_age_seconds":75489,"freshness":"FRESH","line1":"1 63215U 25052F   26144.99221472  .00016846  00000+0  52246-3 0  9990","line2":"2 63215  97.3933  41.2964 0003163 146.4393 213.7050 15.33474426 66551","mean_motion":15.33474426,"eccentricity":0.0003163,"inclination_deg":97.3933,"raan_deg":41.2964,"arg_perigee_deg":146.4393,"mean_anomaly_deg":213.705,"bstar":0.00052246,"rev_number":6655,"period_min":93.904402680922,"perigee_km":463.29099645788,"apogee_km":467.62025315233,"semimajor_km":6843.5926248051,"source":"CELESTRAK","updated_at":"2026-05-25T13:38:23.297065Z"}}